Stündliche Wetter Dąbie

Heute, 28 Oktober, Mittwoch

Zeit Temperatur Niederschläge Wind Luftdruck Luftfeuchtigkeit
00:00 +9°C° 0 mm 3 m/S 751 mmHg 86%
01:00 +9°C° 0 mm 3 m/S 751 mmHg 87%
02:00 +8°C° 0 mm 3 m/S 751 mmHg 87%
03:00 +8°C° 0 mm 3 m/S 751 mmHg 86%
04:00 +7°C° 0 mm 3 m/S 751 mmHg 86%
05:00 +7°C° 0 mm 3 m/S 751 mmHg 86%
06:00 +7°C° 0 mm 3 m/S 751 mmHg 85%
07:00 +7°C° 0 mm 3 m/S 751 mmHg 84%
08:00 +8°C° 0 mm 4 m/S 751 mmHg 78%
09:00 +10°C° 0 mm 4 m/S 751 mmHg 72%
10:00 +12°C° 0 mm 5 m/S 751 mmHg 66%
11:00 +13°C° 0 mm 5 m/S 751 mmHg 62%
12:00 +14°C° 0 mm 5 m/S 750 mmHg 59%
13:00 +15°C° 0 mm 5 m/S 750 mmHg 55%
14:00 +14°C° 0 mm 4 m/S 750 mmHg 57%
15:00 +13°C° 0 mm 4 m/S 750 mmHg 58%
16:00 +12°C° 0 mm 3 m/S 751 mmHg 60%
17:00 +12°C° 0 mm 3 m/S 751 mmHg 61%
18:00 +12°C° 0 mm 3 m/S 751 mmHg 62%
19:00 +11°C° 0 mm 3 m/S 751 mmHg 63%
20:00 +11°C° 0.1 mm 3 m/S 751 mmHg 68%
21:00 +11°C° 0.1 mm 3 m/S 751 mmHg 73%
22:00 +10°C° 0.1 mm 3 m/S 751 mmHg 78%
23:00 +10°C° 0 mm 3 m/S 751 mmHg 79%

Morgen, 29 Oktober, Donnerstag

Zeit Temperatur Niederschläge Wind Luftdruck Luftfeuchtigkeit
00:00 +10°C° 0 mm 3 m/S 751 mmHg 79%
01:00 +10°C° 0 mm 3 m/S 751 mmHg 80%
02:00 +9°C° 0 mm 3 m/S 751 mmHg 81%
03:00 +9°C° 0 mm 3 m/S 751 mmHg 83%
04:00 +8°C° 0 mm 4 m/S 750 mmHg 84%
05:00 +8°C° 0 mm 4 m/S 750 mmHg 85%
06:00 +8°C° 0 mm 4 m/S 750 mmHg 85%
07:00 +8°C° 0 mm 4 m/S 750 mmHg 86%
08:00 +10°C° 0 mm 4 m/S 750 mmHg 80%
09:00 +10°C° 0 mm 5 m/S 750 mmHg 75%
10:00 +12°C° 0 mm 5 m/S 750 mmHg 69%
11:00 +12°C° 0 mm 5 m/S 750 mmHg 70%
12:00 +12°C° 0 mm 5 m/S 750 mmHg 71%
13:00 +12°C° 0 mm 5 m/S 749 mmHg 71%
14:00 +12°C° 0.6 mm 5 m/S 750 mmHg 76%
15:00 +10°C° 0.6 mm 5 m/S 750 mmHg 80%
16:00 +9°C° 0.6 mm 5 m/S 750 mmHg 84%
17:00 +9°C° 0.1 mm 5 m/S 750 mmHg 84%
18:00 +8°C° 0.1 mm 5 m/S 751 mmHg 83%
19:00 +8°C° 0.1 mm 5 m/S 752 mmHg 82%
20:00 +7°C° 0 mm 5 m/S 752 mmHg 83%
21:00 +7°C° 0 mm 5 m/S 753 mmHg 83%
22:00 +7°C° 0 mm 5 m/S 753 mmHg 83%
23:00 +6°C° 0 mm 5 m/S 753 mmHg 84%

übermorgen, 30 Oktober, Freitag

Zeit Temperatur Niederschläge Wind Luftdruck Luftfeuchtigkeit
00:00 +6°C° 0 mm 5 m/S 754 mmHg 85%
01:00 +6°C° 0 mm 5 m/S 754 mmHg 85%
02:00 +6°C° 0 mm 5 m/S 754 mmHg 88%
03:00 +5°C° 0 mm 5 m/S 755 mmHg 90%
04:00 +5°C° 0 mm 5 m/S 755 mmHg 93%
05:00 +5°C° 0 mm 4 m/S 755 mmHg 93%
06:00 +5°C° 0 mm 4 m/S 755 mmHg 92%
07:00 +4°C° 0 mm 4 m/S 755 mmHg 92%
08:00 +5°C° 0 mm 4 m/S 755 mmHg 87%
09:00 +6°C° 0 mm 4 m/S 755 mmHg 81%
10:00 +7°C° 0 mm 4 m/S 755 mmHg 76%
11:00 +7°C° 0.1 mm 4 m/S 754 mmHg 75%
12:00 +8°C° 0.1 mm 4 m/S 754 mmHg 75%
13:00 +8°C° 0.1 mm 4 m/S 753 mmHg 75%
14:00 +8°C° 1 mm 4 m/S 753 mmHg 81%
15:00 +7°C° 1 mm 4 m/S 752 mmHg 86%
16:00 +7°C° 1 mm 4 m/S 752 mmHg 92%
17:00 +8°C° 1.6 mm 4 m/S 752 mmHg 94%
18:00 +8°C° 1.6 mm 4 m/S 752 mmHg 95%
19:00 +10°C° 1.6 mm 4 m/S 751 mmHg 97%
20:00 +10°C° 1.5 mm 4 m/S 751 mmHg 97%
21:00 +10°C° 1.5 mm 4 m/S 752 mmHg 96%
22:00 +10°C° 1.5 mm 4 m/S 752 mmHg 96%
23:00 +9°C° 0.4 mm 3 m/S 752 mmHg 95%

31 Oktober, Samstag

Zeit Temperatur Niederschläge Wind Luftdruck Luftfeuchtigkeit
00:00 +9°C° 0.4 mm 3 m/S 753 mmHg 95%
01:00 +8°C° 0.4 mm 3 m/S 753 mmHg 94%
02:00 +7°C° 0 mm 3 m/S 754 mmHg 94%
03:00 +7°C° 0 mm 2 m/S 755 mmHg 94%
04:00 +6°C° 0 mm 2 m/S 756 mmHg 95%
05:00 +6°C° 0 mm 2 m/S 756 mmHg 94%
06:00 +5°C° 0 mm 2 m/S 757 mmHg 93%
07:00 +6°C° 0 mm 1 m/S 758 mmHg 92%
08:00 +7°C° 0 mm 1 m/S 758 mmHg 85%
09:00 +9°C° 0 mm 1 m/S 759 mmHg 79%
10:00 +10°C° 0 mm 1 m/S 759 mmHg 72%
11:00 +10°C° 0 mm 1 m/S 759 mmHg 68%
12:00 +11°C° 0 mm 1 m/S 759 mmHg 64%
13:00 +12°C° 0 mm 1 m/S 759 mmHg 60%
14:00 +11°C° 0 mm 1 m/S 759 mmHg 64%
15:00 +10°C° 0 mm 0 m/S 759 mmHg 68%
16:00 +9°C° 0 mm 0 m/S 759 mmHg 71%
17:00 +9°C° 0 mm 1 m/S 759 mmHg 74%
18:00 +9°C° 0 mm 1 m/S 760 mmHg 76%
19:00 +8°C° 0 mm 1 m/S 760 mmHg 78%
20:00 +8°C° 0 mm 1 m/S 760 mmHg 80%
21:00 +7°C° 0 mm 2 m/S 760 mmHg 82%
22:00 +6°C° 0 mm 2 m/S 760 mmHg 84%
23:00 +6°C° 0 mm 2 m/S 760 mmHg 85%

1 November, Sonntag

Zeit Temperatur Niederschläge Wind Luftdruck Luftfeuchtigkeit
00:00 +6°C° 0 mm 2 m/S 760 mmHg 87%
01:00 +6°C° 0 mm 2 m/S 760 mmHg 88%
02:00 +5°C° 0 mm 2 m/S 760 mmHg 89%
03:00 +5°C° 0 mm 2 m/S 760 mmHg 90%
04:00 +4°C° 0 mm 3 m/S 760 mmHg 91%
05:00 +4°C° 0 mm 3 m/S 760 mmHg 91%
06:00 +4°C° 0 mm 3 m/S 759 mmHg 91%
07:00 +4°C° 0 mm 3 m/S 759 mmHg 92%
08:00 +5°C° 0 mm 4 m/S 759 mmHg 85%
09:00 +7°C° 0 mm 4 m/S 759 mmHg 79%
10:00 +8°C° 0 mm 5 m/S 759 mmHg 72%
11:00 +9°C° 0 mm 5 m/S 758 mmHg 69%
12:00 +10°C° 0 mm 5 m/S 758 mmHg 67%
13:00 +10°C° 0 mm 5 m/S 758 mmHg 64%
14:00 +10°C° 0 mm 5 m/S 758 mmHg 67%
15:00 +9°C° 0 mm 5 m/S 757 mmHg 69%
16:00 +8°C° 0 mm 4 m/S 757 mmHg 72%
17:00 +8°C° 0 mm 5 m/S 757 mmHg 74%
18:00 +7°C° 0 mm 5 m/S 757 mmHg 76%
19:00 +7°C° 0 mm 5 m/S 757 mmHg 77%
20:00 +7°C° 0 mm 5 m/S 756 mmHg 78%
21:00 +7°C° 0 mm 5 m/S 756 mmHg 78%
22:00 +6°C° 0 mm 5 m/S 756 mmHg 78%
23:00 +6°C° 0 mm 5 m/S 756 mmHg 79%

2 November, Montag

Zeit Temperatur Niederschläge Wind Luftdruck Luftfeuchtigkeit
00:00 +6°C° 0 mm 5 m/S 756 mmHg 80%
01:00 +6°C° 0 mm 5 m/S 756 mmHg 81%
02:00 +6°C° 0 mm 4 m/S 756 mmHg 82%
03:00 +6°C° 0 mm 4 m/S 756 mmHg 83%
04:00 +5°C° 0 mm 4 m/S 755 mmHg 84%
05:00 +5°C° 0 mm 4 m/S 755 mmHg 84%
06:00 +5°C° 0 mm 4 m/S 755 mmHg 85%
07:00 +5°C° 0 mm 4 m/S 755 mmHg 85%
08:00 +6°C° 0 mm 4 m/S 755 mmHg 80%
09:00 +7°C° 0 mm 4 m/S 755 mmHg 76%
10:00 +8°C° 0 mm 5 m/S 755 mmHg 71%
11:00 +9°C° 0 mm 5 m/S 755 mmHg 69%
12:00 +10°C° 0 mm 5 m/S 755 mmHg 66%
13:00 +12°C° 0 mm 5 m/S 755 mmHg 64%
14:00 +12°C° 0 mm 4 m/S 755 mmHg 65%
15:00 +11°C° 0 mm 4 m/S 755 mmHg 66%
16:00 +11°C° 0 mm 4 m/S 755 mmHg 68%
17:00 +11°C° 0 mm 4 m/S 755 mmHg 67%
18:00 +10°C° 0 mm 4 m/S 755 mmHg 66%
19:00 +10°C° 0 mm 4 m/S 755 mmHg 65%
20:00 +10°C° 0 mm 4 m/S 755 mmHg 66%
21:00 +10°C° 0 mm 4 m/S 755 mmHg 66%
22:00 +8°C° 0 mm 4 m/S 755 mmHg 67%
23:00 +8°C° 0 mm 4 m/S 755 mmHg 69%
Mehr zeigen

Wir brauchen deine Erlaubnis

Meteoprog und unser Service Anbieter werden persönliche Daten aufbewahren, so wie Cookies, Geräte Bezeichnung oder ähnliche Technologien von deinem Gerät und Prozess, so wie Persönliche Daten Inhalte und Werbungen, genauso wie social Media und den Verkehr zu analysieren.

  • Aufbewahrung und/oder Zugang zu deiner Geräte Informationen.

    Cookies, Geräte Bezeichnung oder andere Informationen, können aufbewahrt oder Zugang zu deinem Gerät erhalten, für den Grund, der oben angegeben wird.

  • Personalisierte Werbung und Inhalte, Messungen, Einblick in das Publikum und Produkt Entwicklung.

    Werbungen und Inhalte können personalisiert werden, basierend auf ein Profil. Mehr Daten können besser personalisierte Werbungen und Inhalte hinzufügen. Werbung und Inhalte können gezeigt und gemessen werden. Einblicke über das Publikum, welche die Werbung gesehen haben und den Inhalt, können abgeleitet werden. So wie Daten können genutzt werden, um es zu verbessern oder die Benutzer Erfahrung zu verbessern das System und die Software.

Wenn du “Ich stimme zu” klickst, erlaubst du uns, die Cookies zu benutzen die Geräte Bezeichnung, den Web oder ähnliche Technologien zu benutzen. Deine Settings, können in deinem Gerät bei deinem Browser geändert werden.

Für den bestimmten Zweck, berechtigten Interessen beruhen darauf, mehr als auf den Inhalt. Du kannst mehr darüber in unseren Privaten und Cookie Politik lesen.